Location: Asheville, NC
(35.6000°N, 82.5500°W)
Time: 21:01:39
(UTC-04:00)

SO-50 - Visible Passes

Search period start: 17 July 2018 00:00
Search period end: 27 July 2018 00:00
Orbit: 596 x 691 km, 64.6° (Epoch: 16 July)

Date Brightness Start Highest point End Pass type
(mag) Time Alt. Az. Time Alt. Az. Time Alt. Az.
18 Jul ? 05:28:42 10° SE 05:31:24 16° ESE 05:34:09 10° ENE visible
19 Jul ? 05:52:00 10° S 05:56:14 42° ESE 06:00:36 10° NE visible
21 Jul ? 05:02:30 10° S 05:06:17 27° ESE 05:10:11 10° NE visible
22 Jul ? 05:27:13 13° SSW 05:31:15 76° ESE 05:35:53 10° NNE visible
23 Jul ? 04:14:29 14° SE 04:16:24 18° ESE 04:19:28 10° ENE visible
23 Jul ? 05:52:12 10° SW 05:56:28 41° NW 06:00:53 10° NNE visible
24 Jul ? 04:39:22 29° S 04:41:14 48° ESE 04:45:42 10° NE visible
25 Jul ? 03:26:32 11° ESE 03:26:32 11° ESE 03:27:56 10° E visible
25 Jul ? 05:04:11 29° SW 05:06:21 62° WNW 05:10:59 10° NNE visible
26 Jul ? 03:51:18 31° ESE 03:51:18 31° ESE 03:55:21 10° NE visible
26 Jul ? 05:28:57 15° W 05:31:44 25° NW 05:35:37 10° N visible
